[[{"header":{"parameterUnit":"m.s-1","parameterCategory":2,"la1":30.2991,"la2":30.254,"lo1":-89.0895,"lo2":-89.0444,"dy":0.0017,"dx":0.0017,"nx":28,"ny":28,"refTime":"2024-12-01T09:00:00:Z","depth":"0","parameterNumber":2,"parameterNumberName":"U-component_of_CURRENTS"},"data":[0,0,0,0,0,0,0,0,0,0,0,0,0,0,0,0,0,0,0,0,0,0,0,0,0,0,0,0,0,0,0,0,0,0,0,0,0,0,0,0,0,0,0,0,0,0,0,0,0,0,0,0,0,0,0,0,0,0,0.3087,0.3088,0,0.314,0.314,0.314,0.3143,0.3142,0.3142,0.3142,0.3144,0.3144,0.3145,0,0,0,0,0,0,0,0,0,0,0,0,0,0.298,0.2982,0.3087,0.3088,0.3089,0.3139,0.314,0.314,0.3143,0.3142,0.3142,0.3142,0.3144,0.3144,0.3145,0,0,0,0,0,0,0,0,0,0,0,0,0,0.3026,0.2982,0.3087,0.3099,0.3101,0.3139,0.314,0.314,0.3143,0.3142,0.3142,0.3141,0.3144,0.3144,0.3145,0.3157,0,0,0.3146,0.3146,0,0,0,0,0,0,0,0,0.3023,0.3029,0.3096,0.3098,0.3101,0.3137,0.3103,0.3145,0.3143,0.3123,0.3142,0.3141,0.314,0.314,0.3147,0.3157,0.3157,0.3146,0.3147,0.3147,0.3147,0,0,0,0,0,0,0,0.302,0.3027,0.3104,0.3098,0.31,0.3099,0.3104,0.3111,0.313,0.3125,0.3126,0.3137,0.314,0.3147,0.3147,0.3157,0.3146,0.3147,0.3147,0.3147,0.3232,0.3234,0,0,0,0,0,0,0.3022,0.3024,0.3103,0.3106,0.3064,0.3101,0.3107,0.3123,0.3131,0.3133,0.3138,0.3137,0.3146,0.3146,0.3147,0.3207,0.3147,0.3147,0.3148,0.323,0.3233,0.3235,0,0,0,0,0,0,0.3019,0.3028,0.3101,0.3069,0.3078,0.3104,0.3121,0.3124,0.3134,0.3142,0.3142,0.3145,0.3146,0.3146,0.317,0.3205,0.3147,0.3148,0.3228,0.3231,0.3234,0.3298,0,0,0,0,0,0,0.3016,0.3027,0.3036,0.3069,0.308,0.3131,0.3122,0.3126,0.3144,0.3144,0.3148,0.3148,0.3145,0.317,0.3171,0.3205,0.3148,0.3225,0.3229,0.3233,0.3293,0.3303,0.3311,0,0,0,0,0,0.3012,0.3026,0.3036,0.3045,0.3092,0.3132,0.3138,0.3151,0.3145,0.3156,0.3166,0.3148,0.3194,0.3172,0.3173,0.3208,0.3224,0.3228,0.3232,0.329,0.3301,0.3311,0,0,0,0,0,0,0.2981,0.3029,0.304,0.3067,0.3102,0.3134,0.3144,0.3155,0.3172,0.317,0.3167,0.3169,0.3208,0.3199,0.3174,0.3245,0.3208,0.3213,0.3252,0.3262,0.3271,0.3279,0.3149,0,0,0,0,0,0.298,0.3002,0.305,0.307,0.3088,0.3116,0.3132,0.3148,0.317,0.3177,0.3184,0.3198,0.3228,0.3235,0.3254,0.3284,0.3307,0.331,0.3318,0.3326,0.3335,0.3395,0.341,0.3249,0.3249,0.3249,0,0,0.297,0.3002,0.3012,0.3064,0.3088,0.3129,0.3124,0.3156,0.3194,0.3174,0.3216,0.3228,0.3244,0.3289,0.3305,0.3282,0.3392,0.3331,0.3337,0.3343,0.3401,0.3417,0.343,0.3252,0.3252,0.3251,0,0,0.2971,0.2994,0.3018,0.3054,0.3104,0.3132,0.3144,0.3187,0.3209,0.3252,0.326,0.3293,0.3318,0.335,0.3367,0.3433,0.3439,0.3437,0.3483,0.3541,0.3555,0.3567,0.3648,0.3667,0.3437,0.3438,0.3438,0,0.2956,0.3004,0.303,0.3071,0.3106,0.3137,0.318,0.3214,0.326,0.3291,0.3271,0.3349,0.3354,0.3431,0.3457,0.3454,0.3492,0.344,0.3553,0.3565,0.3576,0.3656,0.3676,0.3441,0.3441,0.344,0.344,0,0.2989,0.3026,0.3044,0.3112,0.3149,0.3191,0.325,0.3288,0.3312,0.3351,0.3423,0.3439,0.3486,0.3498,0.3496,0.3588,0.3595,0.356,0.3524,0.3596,0.3677,0.3696,0.3446,0.3445,0.3444,0.3443,0,0,0.2949,0.305,0.3052,0.3096,0.3179,0.3213,0.3286,0.3367,0.3418,0.346,0.3532,0.3584,0.3593,0.3614,0.3622,0.3666,0.3786,0.3648,0.365,0.3727,0.3943,0.3926,0.3946,0.3768,0.3771,0.3773,0.3978,0,0.2968,0.3048,0.3097,0.3172,0.3223,0.3283,0.3349,0.3422,0.3479,0.3555,0.3601,0.3664,0.364,0.3665,0.3714,0.3768,0.3836,0.3735,0.3863,0.3868,0.3841,0.3967,0.3841,0.401,0.3997,0.4,0.4002,0,0.2985,0.304,0.3118,0.322,0.3246,0.3293,0.3401,0.3467,0.3583,0.3628,0.3703,0.3741,0.3841,0.3788,0.3937,0.3876,0.3924,0.3954,0.3962,0.3934,0.3887,0.393,0.4045,0.3963,0.4032,0.403,0.4028,0,0.295,0.3052,0.3115,0.315,0.3269,0.331,0.3372,0.3482,0.3558,0.3678,0.3745,0.3849,0.392,0.3987,0.4072,0.4012,0.4234,0.4153,0.4194,0.4195,0.4106,0.4093,0.4149,0.4265,0.4265,0.4264,0.4264,0,0.296,0.3004,0.3099,0.3134,0.32,0.3289,0.3373,0.3449,0.3585,0.3676,0.3776,0.387,0.3971,0.4103,0.4141,0.4262,0.4303,0.4245,0.4255,0.4129,0.4115,0.405,0.4003,0.4272,0.427,0.4269,0.4268,0,0.2913,0.2984,0.305,0.3156,0.3187,0.3226,0.3363,0.3426,0.3566,0.3691,0.3739,0.3937,0.4104,0.4227,0.4371,0.4366,0.4358,0.4488,0.4352,0.434,0.4234,0.4194,0.4121,0.3988,0.4551,0.4552,0.4553,0,0.2901,0.2934,0.3028,0.3057,0.3101,0.3178,0.3231,0.3383,0.3464,0.3716,0.3775,0.4008,0.4154,0.4413,0.4463,0.4587,0.443,0.4508,0.4347,0.4255,0.4219,0.4028,0.3905,0.4279,0.4278,0.4276,0.4275,0,0.2864,0.2891,0.2937,0.2992,0.3039,0.3104,0.3199,0.3275,0.3458,0.3589,0.379,0.3944,0.4224,0.4316,0.45,0.4529,0.4297,0.4483,0.4417,0.4053,0.3819,0.3686,0.414,0.4264,0.4265,0.4266,0.4267,0.4267,0.2812,0.2819,0.2873,0.2917,0.2967,0.3022,0.3047,0.3173,0.3302,0.3486,0.3701,0.3881,0.4124,0.437,0.4385,0.433,0.4247,0.4197,0.418,0.4011,0.3796,0.4245,0.4346,0.4348,0.4349,0.435,0.4351,0,0.2743,0.2767,0.2802,0.2842,0.2855,0.2919,0.3011,0.3027,0.312,0.334,0.3514,0.3774,0.3942,0.4094,0.4178,0.4056,0.3827,0.395,0.3647,0.3553,0.4007,0.3907,0.388,0.388,0.388,0.388,0.388,0.388,0.271,0.2712,0.2731,0.272,0.2747,0.2733,0.2763,0.2805,0.2928,0.3085,0.3221,0.3422,0.3762,0.4031,0.3988,0.3879,0.3559,0.3428,0.338,0.3724,0.3743,0.3762,0.3656,0.3576,0.3576,0.2758,0.2752,0.2748]},{"header":{"parameterUnit":"m.s-1","parameterCategory":2,"la1":30.2991,"la2":30.254,"lo1":-89.0895,"lo2":-89.0444,"dy":0.0017,"dx":0.0017,"nx":28,"ny":28,"refTime":"2024-12-01T09:00:00:Z","depth":"0","parameterNumber":3,"parameterNumberName":"V-component_of_CURRENTS"},"data":[0,0,0,0,0,0,0,0,0,0,0,0,0,0,0,0,0,0,0,0,0,0,0,0,0,0,0,0,0,0,0,0,0,0,0,0,0,0,0,0,0,0,0,0,0,0,0,0,0,0,0,0,0,0,0,0,0,0,-0.0378,-0.0379,0,-0.0442,-0.0443,-0.0444,-0.0497,-0.0497,-0.0498,-0.0498,-0.0601,-0.0603,-0.0605,0,0,0,0,0,0,0,0,0,0,0,0,0,-0.0344,-0.0344,-0.0378,-0.0379,-0.038,-0.0442,-0.0443,-0.0444,-0.0497,-0.0497,-0.0498,-0.0498,-0.06,-0.0603,-0.0606,0,0,0,0,0,0,0,0,0,0,0,0,0,-0.0379,-0.0344,-0.0378,-0.0413,-0.0417,-0.0442,-0.0443,-0.0444,-0.0497,-0.0497,-0.0498,-0.0499,-0.0599,-0.0603,-0.0606,-0.0613,0,0,-0.0617,-0.0618,0,0,0,0,0,0,0,0,-0.0377,-0.038,-0.0407,-0.0411,-0.0415,-0.0462,-0.0469,-0.0502,-0.0497,-0.0467,-0.0498,-0.0499,-0.0557,-0.0564,-0.0575,-0.0618,-0.0622,-0.0617,-0.0619,-0.062,-0.0621,0,0,0,0,0,0,0,-0.0374,-0.0378,-0.0405,-0.0408,-0.0412,-0.0439,-0.0445,-0.0475,-0.0509,-0.047,-0.0474,-0.0479,-0.0559,-0.0572,-0.0578,-0.0624,-0.0617,-0.062,-0.0622,-0.0623,-0.0705,-0.0706,0,0,0,0,0,0,-0.0361,-0.0375,-0.0403,-0.0407,-0.0396,-0.0439,-0.0446,-0.0447,-0.0508,-0.0517,-0.0478,-0.0481,-0.0565,-0.0574,-0.0582,-0.0603,-0.062,-0.0624,-0.0626,-0.0705,-0.0706,-0.0706,0,0,0,0,0,0,-0.036,-0.0363,-0.04,-0.0392,-0.0399,-0.0439,-0.044,-0.0447,-0.0459,-0.0513,-0.0524,-0.0482,-0.0566,-0.0577,-0.0608,-0.0607,-0.0625,-0.0628,-0.0705,-0.0705,-0.0706,-0.0639,0,0,0,0,0,0,-0.0359,-0.0362,-0.0358,-0.0391,-0.0399,-0.0405,-0.0439,-0.0448,-0.0461,-0.0465,-0.052,-0.053,-0.0568,-0.0603,-0.0612,-0.0612,-0.0631,-0.0705,-0.0705,-0.0706,-0.0641,-0.0637,-0.0633,0,0,0,0,0,-0.0357,-0.0341,-0.0357,-0.036,-0.0391,-0.0404,-0.041,-0.0443,-0.046,-0.0458,-0.05,-0.0529,-0.0611,-0.0605,-0.0616,-0.0617,-0.0705,-0.0705,-0.0706,-0.0643,-0.0637,-0.0633,0,0,0,0,0,0,-0.0319,-0.0346,-0.0364,-0.0356,-0.0376,-0.0413,-0.0411,-0.0435,-0.0466,-0.0471,-0.0526,-0.0539,-0.0568,-0.0601,-0.0593,-0.0643,-0.0664,-0.0666,-0.0613,-0.0609,-0.0605,-0.0585,-0.0634,0,0,0,0,0,-0.0309,-0.0308,-0.0338,-0.0332,-0.0337,-0.0374,-0.0384,-0.0404,-0.0436,-0.045,-0.049,-0.0536,-0.0577,-0.0598,-0.0635,-0.0657,-0.068,-0.0667,-0.0663,-0.0659,-0.0651,-0.0696,-0.0695,-0.0707,-0.0707,-0.0707,0,0,-0.0293,-0.0307,-0.0307,-0.0324,-0.0343,-0.0342,-0.0381,-0.0386,-0.0393,-0.0456,-0.0475,-0.0521,-0.058,-0.0608,-0.0624,-0.0635,-0.0663,-0.066,-0.0656,-0.065,-0.0696,-0.0695,-0.0694,-0.0707,-0.0707,-0.0707,0,0,-0.0255,-0.0271,-0.0256,-0.0269,-0.0289,-0.0311,-0.0309,-0.0341,-0.0363,-0.0386,-0.0438,-0.048,-0.0535,-0.058,-0.061,-0.0607,-0.0641,-0.0621,-0.0586,-0.0629,-0.0628,-0.0628,-0.0629,-0.0629,-0.062,-0.062,-0.062,0,-0.0233,-0.0223,-0.0253,-0.0243,-0.0247,-0.0292,-0.0275,-0.0303,-0.0344,-0.0359,-0.0382,-0.0472,-0.0523,-0.0566,-0.0571,-0.0597,-0.0613,-0.0596,-0.0622,-0.0623,-0.0623,-0.0625,-0.0626,-0.0617,-0.0617,-0.0617,-0.0618,0,-0.0189,-0.0182,-0.0171,-0.0178,-0.0184,-0.0176,-0.0213,-0.0225,-0.0258,-0.0293,-0.0338,-0.0411,-0.0464,-0.0492,-0.0533,-0.0566,-0.0571,-0.061,-0.0628,-0.0618,-0.062,-0.0622,-0.0612,-0.0613,-0.0614,-0.0615,0,0,-0.0131,-0.0138,-0.0134,-0.0126,-0.0148,-0.0144,-0.0152,-0.0173,-0.0168,-0.0235,-0.0241,-0.0337,-0.0379,-0.0417,-0.0478,-0.0522,-0.0541,-0.0562,-0.0566,-0.0552,-0.0603,-0.0545,-0.0542,-0.0586,-0.0587,-0.0587,-0.0592,0,-0.0085,-0.0051,-0.0071,-0.0039,-0.0022,-0.0061,-0.0057,-0.0084,-0.012,-0.0137,-0.0232,-0.0263,-0.0352,-0.0368,-0.0432,-0.0503,-0.0548,-0.0533,-0.0626,-0.0627,-0.0569,-0.0544,-0.0532,-0.0531,-0.0595,-0.0595,-0.0596,0,-0.0032,-0.0017,0.0025,0.0037,0.0043,0.0056,0.0061,0.0055,0.0009,-0.0021,-0.0085,-0.0149,-0.0223,-0.03,-0.0428,-0.0411,-0.0504,-0.057,-0.0573,-0.0544,-0.0575,-0.056,-0.0533,-0.0748,-0.06,-0.0599,-0.0599,0,0.0029,0.0051,0.0088,0.0091,0.0099,0.0116,0.0117,0.0095,0.0116,0.0055,0.0074,-0.0048,-0.0066,-0.0218,-0.0344,-0.0392,-0.0461,-0.0549,-0.0587,-0.0583,-0.0602,-0.0598,-0.0786,-0.0655,-0.0655,-0.0655,-0.0655,0,0.0085,0.0117,0.0123,0.0146,0.021,0.0183,0.0245,0.0223,0.0229,0.0289,0.0141,0.0184,-0.0047,-0.011,-0.0283,-0.0397,-0.0416,-0.0562,-0.0582,-0.0574,-0.0568,-0.078,-0.0919,-0.0655,-0.0655,-0.0655,-0.0655,0,0.015,0.0148,0.0199,0.0223,0.0244,0.0287,0.035,0.0397,0.0379,0.0458,0.0454,0.0379,0.0312,0.0109,-0.0086,-0.0268,-0.053,-0.0467,-0.0411,-0.0424,-0.0686,-0.082,-0.1003,-0.1096,-0.053,-0.0529,-0.0528,0,0.0184,0.0218,0.0271,0.0325,0.0344,0.0408,0.0471,0.0471,0.0544,0.0609,0.0676,0.0636,0.0672,0.0422,0.009,-0.0176,-0.0429,-0.0378,-0.0494,-0.0677,-0.0844,-0.0944,-0.1018,-0.0491,-0.049,-0.0488,-0.0488,0,0.0262,0.028,0.0327,0.0441,0.0515,0.0604,0.0698,0.0792,0.0832,0.093,0.1089,0.1132,0.0898,0.0666,0.0274,0.0038,-0.0532,-0.0362,-0.0597,-0.0853,-0.0934,-0.1037,-0.0486,-0.0478,-0.0479,-0.0479,-0.048,-0.048,0.033,0.0386,0.0463,0.0575,0.0671,0.082,0.0937,0.1074,0.1253,0.1461,0.1449,0.1576,0.1143,0.0631,0.0282,-0.0397,-0.0437,-0.0636,-0.0785,-0.0868,-0.0965,-0.0349,-0.0337,-0.0337,-0.0337,-0.0337,-0.0337,0,0.0421,0.0493,0.0601,0.0747,0.0888,0.0909,0.1113,0.1262,0.1538,0.1733,0.191,0.178,0.1252,0.0632,-0.0267,-0.0743,-0.0971,-0.1024,-0.1224,-0.1284,-0.0775,-0.0781,-0.0808,-0.0808,-0.0808,-0.0808,-0.0807,-0.0807,0.0478,0.06,0.066,0.092,0.1035,0.1243,0.138,0.1618,0.1808,0.2097,0.2194,0.2229,0.1723,0.0148,-0.094,-0.1211,-0.1599,-0.1657,-0.1833,-0.1557,-0.1535,-0.1513,-0.1552,-0.1741,-0.1742,-0.2285,-0.2291,-0.2296]}],[{"header":{"parameterUnit":"m.s-1","parameterCategory":2,"la1":30.2991,"la2":30.254,"lo1":-89.0895,"lo2":-89.0444,"dy":0.0017,"dx":0.0017,"nx":28,"ny":28,"refTime":"2024-12-01T09:00:00:Z","depth":"2","parameterNumber":2,"parameterNumberName":"U-component_of_CURRENTS"},"data":[0,0,0,0,0,0,0,0,0,0,0,0,0,0,0,0,0,0,0,0,0,0,0,0,0,0,0,0,0,0,0,0,0,0,0,0,0,0,0,0,0,0,0,0,0,0,0,0,0,0,0,0,0,0,0,0,0,0,0.2544,0.2545,0,0.2601,0.2602,0.2602,0.2621,0.2621,0.2621,0.2621,0.266,0.2661,0.2662,0,0,0,0,0,0,0,0,0,0,0,0,0,0.2471,0.2472,0.2544,0.2545,0.2546,0.2601,0.2602,0.2602,0.2621,0.2621,0.2621,0.2621,0.266,0.2661,0.2662,0,0,0,0,0,0,0,0,0,0,0,0,0,0.251,0.2472,0.2544,0.2564,0.2567,0.2601,0.2602,0.2602,0.2621,0.2621,0.2621,0.2621,0.2659,0.2661,0.2662,0.2671,0,0,0.2667,0.2668,0,0,0,0,0,0,0,0,0.2507,0.2512,0.256,0.2563,0.2566,0.2606,0.259,0.2626,0.2621,0.2597,0.2621,0.2621,0.2642,0.2645,0.2652,0.2673,0.2675,0.2667,0.2668,0.2669,0.2669,0,0,0,0,0,0,0,0.2505,0.251,0.2564,0.2561,0.2565,0.2577,0.2582,0.2597,0.2616,0.2599,0.2601,0.2612,0.2643,0.265,0.2653,0.2675,0.2667,0.2669,0.2669,0.267,0.2787,0.2789,0,0,0,0,0,0,0.2503,0.2507,0.2562,0.2566,0.254,0.2579,0.2584,0.2591,0.2617,0.2621,0.2612,0.2613,0.2648,0.2651,0.2655,0.2738,0.2669,0.267,0.2671,0.2785,0.2788,0.279,0,0,0,0,0,0,0.2501,0.2507,0.256,0.254,0.2548,0.258,0.2587,0.2592,0.2612,0.2627,0.2631,0.2629,0.2648,0.2652,0.2682,0.2737,0.2671,0.2672,0.2783,0.2786,0.2789,0.2859,0,0,0,0,0,0,0.2498,0.2506,0.2514,0.254,0.255,0.2592,0.2588,0.2593,0.262,0.2621,0.2643,0.2646,0.2648,0.268,0.2684,0.2738,0.2674,0.278,0.2784,0.2788,0.2854,0.2864,0.2873,0,0,0,0,0,0.2495,0.2506,0.2514,0.2522,0.2559,0.2593,0.2599,0.2619,0.2621,0.2636,0.265,0.2646,0.271,0.2682,0.2687,0.2742,0.2778,0.2783,0.2788,0.285,0.2862,0.2873,0,0,0,0,0,0,0.2475,0.251,0.2519,0.2539,0.257,0.2598,0.2616,0.2627,0.265,0.2656,0.266,0.2665,0.2717,0.2716,0.2686,0.279,0.2749,0.2755,0.2795,0.2807,0.2816,0.2817,0.2675,0,0,0,0,0,0.2476,0.2497,0.2529,0.2548,0.2564,0.2591,0.2609,0.2627,0.265,0.2661,0.268,0.2706,0.2739,0.2759,0.2782,0.2829,0.284,0.2873,0.2882,0.289,0.2896,0.2956,0.2971,0.2806,0.2806,0.2806,0,0,0.2471,0.2497,0.2506,0.2547,0.257,0.2609,0.2602,0.2639,0.268,0.2662,0.272,0.2735,0.2757,0.2816,0.2841,0.2823,0.2946,0.2897,0.2903,0.2904,0.2963,0.2979,0.2993,0.281,0.2809,0.2808,0,0,0.2479,0.2498,0.252,0.2553,0.2601,0.2627,0.2641,0.2682,0.271,0.276,0.2769,0.2811,0.2855,0.289,0.2911,0.2986,0.2991,0.3004,0.3059,0.3118,0.3132,0.3144,0.3187,0.3202,0.3014,0.3014,0.3014,0,0.2469,0.2508,0.2532,0.257,0.2606,0.2638,0.2679,0.2717,0.2767,0.2795,0.2789,0.2878,0.2895,0.2975,0.3008,0.3009,0.3036,0.3011,0.313,0.3142,0.3154,0.3194,0.3211,0.3018,0.3018,0.3017,0.3017,0,0.2502,0.2537,0.2556,0.2619,0.2659,0.2701,0.2759,0.2806,0.2842,0.2874,0.2954,0.2981,0.3037,0.3059,0.3057,0.3159,0.3149,0.313,0.3097,0.3175,0.3213,0.3228,0.3024,0.3022,0.3021,0.302,0,0,0.2468,0.2557,0.2568,0.2605,0.2691,0.2725,0.2809,0.2884,0.294,0.2993,0.3071,0.3131,0.3147,0.3172,0.319,0.3239,0.3344,0.3226,0.3228,0.3263,0.3475,0.34,0.3409,0.3351,0.3354,0.3356,0.3471,0,0.2487,0.2562,0.261,0.2688,0.2729,0.2797,0.2869,0.2944,0.301,0.3095,0.3143,0.3214,0.3194,0.3234,0.3287,0.3332,0.3388,0.3314,0.3399,0.3402,0.3321,0.3425,0.3179,0.3255,0.3486,0.3489,0.3491,0,0.2501,0.2557,0.263,0.2726,0.275,0.2808,0.2931,0.3,0.312,0.3173,0.3256,0.3295,0.3396,0.3361,0.3481,0.3438,0.347,0.3488,0.3493,0.3407,0.3356,0.3215,0.3274,0.3516,0.3514,0.3512,0.3511,0,0.247,0.2566,0.2627,0.2662,0.2778,0.2831,0.2901,0.3019,0.309,0.3231,0.3295,0.3403,0.3481,0.3535,0.3582,0.355,0.3699,0.3657,0.3616,0.361,0.3407,0.3379,0.3744,0.3744,0.3744,0.3744,0.3743,0,0.2469,0.2514,0.2616,0.2655,0.2727,0.2817,0.2907,0.2999,0.314,0.3218,0.3331,0.3413,0.3531,0.3621,0.3638,0.3683,0.3751,0.3649,0.3647,0.3425,0.3398,0.3619,0.3602,0.3748,0.3747,0.3746,0.3746,0,0.2419,0.2486,0.2553,0.2676,0.2712,0.2764,0.2901,0.2971,0.3108,0.3229,0.328,0.3467,0.3575,0.3664,0.3775,0.3756,0.3795,0.3789,0.3516,0.3479,0.3653,0.364,0.3766,0.3765,0.3763,0.3762,0.3762,0,0.2404,0.2439,0.255,0.2583,0.2639,0.2724,0.2785,0.2938,0.3018,0.3228,0.3286,0.3461,0.3547,0.3699,0.3717,0.3762,0.3794,0.3534,0.342,0.3677,0.3662,0.365,0.3639,0.3186,0.318,0.3176,0.3172,0,0.2377,0.2412,0.2459,0.2534,0.2595,0.2654,0.276,0.2816,0.2987,0.3084,0.3219,0.3312,0.3495,0.3453,0.3542,0.3516,0.3506,0.3443,0.3811,0.3211,0.3137,0.312,0.3126,0.3132,0.3136,0.3139,0.3141,0.3143,0.2335,0.2353,0.2415,0.2467,0.2524,0.2568,0.2583,0.2691,0.2774,0.2887,0.3048,0.31,0.321,0.322,0.3152,0.3117,0.3339,0.3188,0.3199,0.3215,0.3121,0.3047,0.3008,0.3011,0.3014,0.3016,0.3018,0,0.229,0.2315,0.2356,0.2393,0.2398,0.2478,0.2548,0.2526,0.2551,0.2691,0.277,0.2621,0.2654,0.2742,0.2655,0.2684,0.2631,0.2557,0.246,0.2505,0.2544,0.241,0.2111,0.2108,0.2104,0.2101,0,0,0.2257,0.226,0.2277,0.2249,0.2281,0.2256,0.2268,0.2251,0.2308,0.2269,0.2294,0.2531,0.2684,0.2348,0.2338,0.2204,0.2319,0.2123,0.2866,0.2799,0.2832,0.2944,0.2794,0,0,0,0,0]},{"header":{"parameterUnit":"m.s-1","parameterCategory":2,"la1":30.2991,"la2":30.254,"lo1":-89.0895,"lo2":-89.0444,"dy":0.0017,"dx":0.0017,"nx":28,"ny":28,"refTime":"2024-12-01T09:00:00:Z","depth":"2","parameterNumber":3,"parameterNumberName":"V-component_of_CURRENTS"},"data":[0,0,0,0,0,0,0,0,0,0,0,0,0,0,0,0,0,0,0,0,0,0,0,0,0,0,0,0,0,0,0,0,0,0,0,0,0,0,0,0,0,0,0,0,0,0,0,0,0,0,0,0,0,0,0,0,0,0,-0.0034,-0.0035,0,-0.0103,-0.0104,-0.0105,-0.0156,-0.0157,-0.0157,-0.0157,-0.025,-0.0252,-0.0255,0,0,0,0,0,0,0,0,0,0,0,0,0,-0.0007,-0.0007,-0.0034,-0.0035,-0.0036,-0.0103,-0.0104,-0.0105,-0.0156,-0.0157,-0.0157,-0.0157,-0.025,-0.0252,-0.0255,0,0,0,0,0,0,0,0,0,0,0,0,0,-0.0043,-0.0007,-0.0034,-0.0069,-0.0072,-0.0103,-0.0104,-0.0105,-0.0156,-0.0157,-0.0157,-0.0158,-0.0249,-0.0252,-0.0255,-0.0264,0,0,-0.0265,-0.0266,0,0,0,0,0,0,0,0,-0.0041,-0.0044,-0.0063,-0.0066,-0.0071,-0.0121,-0.0129,-0.0159,-0.0156,-0.0125,-0.0157,-0.0158,-0.0208,-0.0215,-0.0228,-0.0268,-0.0272,-0.0265,-0.0267,-0.0269,-0.0269,0,0,0,0,0,0,0,-0.0038,-0.0042,-0.0063,-0.0064,-0.0068,-0.0101,-0.0106,-0.0135,-0.0164,-0.0128,-0.0132,-0.0137,-0.0211,-0.0224,-0.023,-0.0274,-0.0265,-0.0268,-0.027,-0.0271,-0.0336,-0.0336,0,0,0,0,0,0,-0.0024,-0.0039,-0.0061,-0.0065,-0.0055,-0.0101,-0.0107,-0.0105,-0.0164,-0.0172,-0.0137,-0.014,-0.0219,-0.0226,-0.0234,-0.0243,-0.0269,-0.0272,-0.0273,-0.0337,-0.0336,-0.0336,0,0,0,0,0,0,-0.0023,-0.0024,-0.0058,-0.0053,-0.0059,-0.01,-0.0098,-0.0106,-0.012,-0.017,-0.018,-0.0143,-0.0219,-0.0229,-0.0253,-0.0247,-0.0273,-0.0276,-0.0337,-0.0337,-0.0336,-0.0264,0,0,0,0,0,0,-0.0021,-0.0023,-0.0019,-0.0052,-0.0059,-0.0066,-0.0098,-0.0107,-0.0122,-0.0126,-0.0178,-0.0187,-0.0221,-0.0248,-0.0256,-0.0252,-0.0278,-0.0337,-0.0337,-0.0336,-0.0267,-0.0261,-0.0257,0,0,0,0,0,-0.002,-0.0005,-0.0018,-0.0021,-0.0051,-0.0065,-0.0072,-0.0104,-0.0121,-0.012,-0.0156,-0.0185,-0.0252,-0.025,-0.026,-0.0256,-0.0337,-0.0337,-0.0336,-0.0269,-0.0262,-0.0257,0,0,0,0,0,0,0.001,-0.001,-0.0025,-0.0017,-0.0037,-0.0073,-0.0076,-0.0098,-0.0126,-0.0132,-0.018,-0.0192,-0.0212,-0.0243,-0.024,-0.0275,-0.0301,-0.0302,-0.0246,-0.024,-0.0235,-0.021,-0.0281,0,0,0,0,0,0.0019,0.0023,-0.0002,0.0002,-0.0003,-0.0039,-0.0051,-0.0071,-0.0099,-0.0113,-0.0149,-0.0188,-0.0218,-0.0235,-0.0267,-0.0283,-0.0312,-0.0289,-0.0284,-0.0279,-0.0266,-0.0306,-0.0303,-0.0335,-0.0335,-0.0335,0,0,0.0031,0.002,0.0021,0.0008,-0.0011,-0.0006,-0.0047,-0.0056,-0.0054,-0.0118,-0.0128,-0.0172,-0.0218,-0.0237,-0.0249,-0.0262,-0.0285,-0.0278,-0.0274,-0.0263,-0.0306,-0.0302,-0.03,-0.0334,-0.0335,-0.0335,0,0,0.0063,0.0049,0.0065,0.0056,0.0036,0.0017,0.0019,-0.0014,-0.0028,-0.0046,-0.009,-0.0125,-0.0174,-0.0202,-0.0224,-0.021,-0.0258,-0.0227,-0.0181,-0.0221,-0.0218,-0.0216,-0.0245,-0.0247,-0.0225,-0.0225,-0.0224,0,0.0078,0.0097,0.0067,0.0081,0.0083,0.0035,0.0057,0.0037,-0.0001,-0.0005,-0.0039,-0.011,-0.0155,-0.017,-0.017,-0.0197,-0.0226,-0.0198,-0.0213,-0.0212,-0.0211,-0.0242,-0.0244,-0.0221,-0.0221,-0.0222,-0.0222,0,0.0121,0.0137,0.0147,0.0151,0.0148,0.0158,0.0132,0.0124,0.0093,0.0066,0.0037,-0.0031,-0.0073,-0.0097,-0.0132,-0.0146,-0.017,-0.0201,-0.0223,-0.0203,-0.0237,-0.0241,-0.0216,-0.0217,-0.0218,-0.0219,0,0,0.016,0.0177,0.0181,0.0204,0.019,0.0197,0.0205,0.0203,0.0218,0.0152,0.0159,0.0084,0.0034,0.0007,-0.0049,-0.0087,-0.0115,-0.0137,-0.0141,-0.0157,-0.0196,-0.0215,-0.0221,-0.0152,-0.0152,-0.0152,-0.022,0,0.0207,0.026,0.025,0.0301,0.0331,0.03,0.0318,0.0304,0.0276,0.0267,0.0186,0.0162,0.0078,0.0056,0.0003,-0.0079,-0.0122,-0.0093,-0.0221,-0.0224,-0.0236,-0.0225,-0.0204,-0.0262,-0.0224,-0.0224,-0.0225,0,0.0258,0.029,0.0351,0.0395,0.0406,0.042,0.0446,0.0453,0.0423,0.04,0.0345,0.028,0.0214,0.0137,0.0,0.0021,-0.008,-0.0152,-0.0157,-0.02,-0.025,-0.0279,-0.0271,-0.0232,-0.0231,-0.0231,-0.023,0,0.0313,0.0365,0.042,0.0432,0.0465,0.0486,0.0496,0.0488,0.0521,0.0478,0.0488,0.0383,0.0345,0.0201,0.0036,0.0017,-0.0111,-0.0159,-0.027,-0.0273,-0.0291,-0.0294,-0.0256,-0.0256,-0.0256,-0.0256,-0.0255,0,0.0375,0.042,0.0449,0.048,0.0554,0.0545,0.0612,0.0606,0.062,0.0668,0.0554,0.0568,0.0359,0.0257,0.0082,-0.0097,-0.0084,-0.0253,-0.029,-0.0265,-0.0265,-0.027,-0.027,-0.0258,-0.0258,-0.0257,-0.0257,0,0.0427,0.0445,0.0516,0.0562,0.0582,0.0629,0.0699,0.0752,0.0743,0.0801,0.0795,0.0717,0.0579,0.0367,0.0151,-0.0015,-0.0198,-0.0269,-0.022,-0.025,-0.0347,-0.0343,-0.0398,-0.0399,-0.04,-0.0401,-0.0402,0,0.0459,0.0498,0.0576,0.0627,0.0649,0.0719,0.0778,0.0805,0.0874,0.09,0.0945,0.084,0.0777,0.0455,0.0149,-0.015,-0.0192,-0.0323,-0.0364,-0.033,-0.0361,-0.0355,-0.035,-0.0362,-0.0362,-0.0362,-0.0362,0,0.0521,0.0542,0.0603,0.0707,0.0778,0.0875,0.096,0.1041,0.1081,0.1125,0.1169,0.112,0.0819,0.0531,0.0128,-0.0082,-0.0278,-0.0338,-0.0314,-0.0326,-0.0301,-0.0329,-0.0325,-0.0365,-0.0365,-0.0364,-0.0364,-0.0364,0.0565,0.0619,0.0695,0.0797,0.0891,0.1016,0.1108,0.1208,0.132,0.1393,0.1338,0.1266,0.0939,0.0428,0.0076,-0.0293,-0.0286,-0.0421,-0.0418,-0.0416,-0.0396,-0.0374,-0.0447,-0.0448,-0.0448,-0.0448,-0.0448,0,0.0622,0.0682,0.0781,0.0906,0.1021,0.1059,0.1226,0.1314,0.1449,0.1499,0.151,0.1189,0.0862,0.0487,-0.0057,-0.0384,-0.0417,-0.0489,-0.0452,-0.0448,-0.0444,-0.0425,-0.0485,-0.0486,-0.0487,-0.0488,0,0,0.0656,0.0752,0.0802,0.099,0.1085,0.1242,0.1345,0.1468,0.1546,0.158,0.1539,0.1445,0.0986,0.0593,0.0143,-0.0164,-0.0233,-0.0234,-0.0172,-0.0071,-0.0064,-0.0376,-0.0338,0,0,0,0,0]}],[{"header":{"parameterUnit":"m.s-1","parameterCategory":2,"la1":30.2991,"la2":30.254,"lo1":-89.0895,"lo2":-89.0444,"dy":0.0017,"dx":0.0017,"nx":28,"ny":28,"refTime":"2024-12-01T09:00:00:Z","depth":"4","parameterNumber":2,"parameterNumberName":"U-component_of_CURRENTS"},"data":[0,0,0,0,0,0,0,0,0,0,0,0,0,0,0,0,0,0,0,0,0,0,0,0,0,0,0,0,0,0,0,0,0,0,0,0,0,0,0,0,0,0,0,0,0,0,0,0,0,0,0,0,0,0,0,0,0,0,0.1558,0.1559,0,0.1642,0.1643,0.1644,0.171,0.1711,0.1712,0.1713,0.1791,0.1792,0.1793,0,0,0,0,0,0,0,0,0,0,0,0,0,0.1451,0.1452,0.1558,0.1559,0.156,0.1642,0.1643,0.1644,0.171,0.1711,0.1712,0.1713,0.179,0.1792,0.1794,0,0,0,0,0,0,0,0,0,0,0,0,0,0.1511,0.1453,0.1558,0.1604,0.1609,0.1642,0.1643,0.1645,0.171,0.1711,0.1712,0.1713,0.179,0.1792,0.1794,0.1783,0,0,0.18,0.1801,0,0,0,0,0,0,0,0,0.1507,0.1515,0.1596,0.1601,0.1607,0.1668,0.1634,0.1691,0.171,0.167,0.1713,0.1714,0.1749,0.1755,0.1766,0.1787,0.179,0.18,0.1801,0.1802,0.1803,0,0,0,0,0,0,0,0.1503,0.1511,0.159,0.1597,0.1604,0.162,0.163,0.1645,0.1701,0.1674,0.1679,0.169,0.1752,0.1764,0.1768,0.1791,0.18,0.1802,0.1803,0.1804,0.1905,0.1906,0,0,0,0,0,0,0.1495,0.1507,0.1587,0.1593,0.1561,0.1621,0.1632,0.1646,0.1701,0.1711,0.1689,0.1693,0.176,0.1766,0.1771,0.1855,0.1802,0.1804,0.1805,0.1904,0.1905,0.1907,0,0,0,0,0,0,0.1492,0.1501,0.1584,0.1553,0.1565,0.1622,0.1637,0.1647,0.1697,0.1713,0.1723,0.1734,0.1761,0.1769,0.1822,0.1855,0.1805,0.1807,0.1902,0.1904,0.1906,0.1962,0,0,0,0,0,0,0.1489,0.15,0.1525,0.1552,0.1566,0.1625,0.1637,0.1648,0.1701,0.1708,0.1753,0.176,0.1763,0.1819,0.1824,0.1857,0.1809,0.19,0.1903,0.1905,0.1958,0.1966,0.1972,0,0,0,0,0,0.1485,0.1504,0.1526,0.1536,0.1593,0.1627,0.1636,0.1678,0.1702,0.1727,0.1764,0.176,0.1839,0.1822,0.1827,0.1862,0.1899,0.1902,0.1905,0.1955,0.1964,0.1972,0,0,0,0,0,0,0.1472,0.1513,0.1538,0.1571,0.1609,0.1639,0.167,0.1698,0.1747,0.1766,0.178,0.1789,0.1843,0.1846,0.1826,0.1898,0.1868,0.1872,0.1904,0.1912,0.1919,0.1922,0.181,0,0,0,0,0,0.148,0.1508,0.1548,0.1579,0.1601,0.1644,0.1671,0.1701,0.1738,0.1764,0.1795,0.1828,0.1853,0.1881,0.1897,0.1942,0.1951,0.1968,0.1975,0.198,0.1987,0.2031,0.2043,0.1918,0.1918,0.1918,0,0,0.1485,0.1512,0.153,0.158,0.1614,0.1644,0.1664,0.1714,0.1749,0.1762,0.1829,0.1852,0.1869,0.1916,0.1941,0.1931,0.2022,0.1985,0.199,0.1993,0.2036,0.2048,0.2059,0.192,0.1919,0.1919,0,0,0.1493,0.1535,0.156,0.159,0.1647,0.1671,0.1693,0.1746,0.1787,0.1842,0.1862,0.1911,0.1951,0.1977,0.199,0.2047,0.2051,0.2057,0.2106,0.2149,0.2159,0.2169,0.2201,0.2213,0.2069,0.2069,0.2069,0,0.1503,0.1535,0.1573,0.1601,0.1631,0.1685,0.1717,0.1758,0.1825,0.186,0.1871,0.1956,0.1975,0.2035,0.2062,0.2063,0.2088,0.2072,0.2158,0.2167,0.2176,0.2207,0.2219,0.2072,0.2072,0.2071,0.2071,0,0.1517,0.1556,0.1574,0.1626,0.1664,0.1701,0.1756,0.1809,0.186,0.1898,0.1981,0.2018,0.2072,0.2087,0.2095,0.2173,0.2171,0.2155,0.2136,0.2192,0.2221,0.2233,0.2077,0.2075,0.2075,0.2074,0,0,0.1497,0.157,0.1579,0.161,0.1682,0.171,0.1776,0.1844,0.1899,0.1967,0.204,0.2098,0.2138,0.2158,0.2187,0.2233,0.2319,0.2235,0.2236,0.2266,0.2422,0.2292,0.2292,0.2328,0.233,0.2332,0.242,0,0.1501,0.1549,0.1589,0.1644,0.1675,0.1741,0.1794,0.1867,0.1937,0.202,0.2083,0.2161,0.216,0.2214,0.2259,0.231,0.2354,0.2297,0.2364,0.2366,0.2242,0.2302,0.2339,0.2428,0.2431,0.2433,0.2434,0,0.1491,0.1531,0.158,0.166,0.1682,0.1726,0.1829,0.1888,0.2004,0.2069,0.2159,0.2215,0.2318,0.2302,0.2413,0.2385,0.2411,0.2436,0.2439,0.2304,0.2257,0.2359,0.2456,0.2454,0.2452,0.2451,0.245,0,0.1438,0.1518,0.1558,0.1583,0.168,0.1729,0.1795,0.1906,0.1975,0.2124,0.2195,0.2301,0.2386,0.2437,0.2501,0.2474,0.2607,0.2565,0.2466,0.2457,0.2523,0.2512,0.2629,0.2629,0.2628,0.2628,0.2628,0,0.1399,0.1437,0.1544,0.1563,0.163,0.1715,0.1806,0.189,0.2024,0.2109,0.223,0.2311,0.243,0.2515,0.2539,0.2548,0.2639,0.2485,0.2474,0.2545,0.2535,0.2532,0.252,0.2631,0.2631,0.263,0.263,0,0.1322,0.1389,0.144,0.1556,0.1603,0.1652,0.1808,0.1866,0.2017,0.2138,0.2197,0.2357,0.2469,0.2559,0.2659,0.259,0.2614,0.259,0.2682,0.2673,0.2422,0.2412,0.2472,0.2468,0.2465,0.2462,0.246,0,0.128,0.1298,0.1421,0.1459,0.1517,0.162,0.1684,0.1846,0.1917,0.2141,0.2181,0.2355,0.2446,0.2486,0.2578,0.2621,0.2589,0.2574,0.2469,0.2424,0.2409,0.2403,0.2398,0.2454,0.2454,0.2453,0.2452,0,0.1199,0.125,0.1299,0.1385,0.1457,0.1528,0.1645,0.1686,0.1872,0.2028,0.2135,0.221,0.2332,0.2403,0.247,0.2484,0.2566,0.2539,0.2544,0.2445,0.2404,0.2391,0.2389,0.2441,0.2442,0.2443,0.2444,0,0.1143,0.1156,0.1231,0.1298,0.138,0.1418,0.1489,0.1589,0.1685,0.1933,0.1963,0.2152,0.2311,0.2334,0.2388,0.2407,0.2355,0.2259,0.2277,0.2291,0.219,0.2109,0.2057,0,0,0,0,0,0.1081,0.1095,0.1145,0.1208,0.1281,0.1335,0.1455,0.153,0.1713,0.1743,0.1856,0.1965,0.2067,0.2154,0.2138,0.229,0.2351,0.2258,0.2244,0.2379,0.2391,0.2289,0,0,0,0,0,0,0.1041,0.1081,0.1111,0.1126,0.1152,0.1221,0.1286,0.14,0.1432,0.1628,0.1694,0.185,0.1973,0.2072,0.2105,0.2132,0.2083,0.2378,0.2373,0.2371,0.2383,0.2393,0.2293,0,0,0,0,0]},{"header":{"parameterUnit":"m.s-1","parameterCategory":2,"la1":30.2991,"la2":30.254,"lo1":-89.0895,"lo2":-89.0444,"dy":0.0017,"dx":0.0017,"nx":28,"ny":28,"refTime":"2024-12-01T09:00:00:Z","depth":"4","parameterNumber":3,"parameterNumberName":"V-component_of_CURRENTS"},"data":[0,0,0,0,0,0,0,0,0,0,0,0,0,0,0,0,0,0,0,0,0,0,0,0,0,0,0,0,0,0,0,0,0,0,0,0,0,0,0,0,0,0,0,0,0,0,0,0,0,0,0,0,0,0,0,0,0,0,0.0068,0.0067,0,0.002,0.0019,0.0018,-0.0015,-0.0015,-0.0015,-0.0015,-0.0072,-0.0073,-0.0075,0,0,0,0,0,0,0,0,0,0,0,0,0,0.0089,0.0089,0.0068,0.0067,0.0067,0.002,0.0019,0.0018,-0.0015,-0.0015,-0.0015,-0.0015,-0.0072,-0.0073,-0.0075,0,0,0,0,0,0,0,0,0,0,0,0,0,0.0064,0.0089,0.0068,0.0045,0.0042,0.002,0.0019,0.0018,-0.0015,-0.0015,-0.0015,-0.0016,-0.0071,-0.0073,-0.0075,-0.0081,0,0,-0.0081,-0.0082,0,0,0,0,0,0,0,0,0.0066,0.0064,0.0049,0.0046,0.0043,0.0008,0.0006,-0.0015,-0.0014,0.0007,-0.0015,-0.0016,-0.0046,-0.005,-0.0058,-0.0083,-0.0086,-0.0081,-0.0082,-0.0083,-0.0084,0,0,0,0,0,0,0,0.0068,0.0065,0.0048,0.0048,0.0045,0.0022,0.0019,0.0001,-0.0017,0.0005,0.0002,-0.0002,-0.0047,-0.0056,-0.006,-0.0087,-0.0081,-0.0083,-0.0084,-0.0085,-0.0113,-0.0113,0,0,0,0,0,0,0.0077,0.0067,0.005,0.0047,0.0054,0.0023,0.0019,0.002,-0.0017,-0.0023,-0.0002,-0.0004,-0.0053,-0.0058,-0.0062,-0.0053,-0.0083,-0.0085,-0.0086,-0.0114,-0.0113,-0.0113,0,0,0,0,0,0,0.0078,0.0076,0.0052,0.0056,0.0051,0.0023,0.0024,0.0019,0.001,-0.0022,-0.0028,-0.0006,-0.0053,-0.0059,-0.0074,-0.0056,-0.0086,-0.0088,-0.0114,-0.0113,-0.0113,-0.0046,0,0,0,0,0,0,0.0079,0.0077,0.008,0.0057,0.0051,0.0047,0.0024,0.0018,0.0008,0.0005,-0.0027,-0.0033,-0.0054,-0.0071,-0.0076,-0.0059,-0.0089,-0.0115,-0.0114,-0.0113,-0.0049,-0.0044,-0.0039,0,0,0,0,0,0.008,0.0089,0.008,0.0078,0.0057,0.0047,0.0043,0.0021,0.0008,0.001,-0.0014,-0.0032,-0.0069,-0.0072,-0.0078,-0.0062,-0.0115,-0.0114,-0.0113,-0.0052,-0.0045,-0.0039,0,0,0,0,0,0,0.0099,0.0086,0.0076,0.008,0.0067,0.0042,0.0041,0.0024,0.0007,0.0004,-0.0029,-0.0036,-0.0042,-0.0063,-0.0065,-0.0069,-0.0094,-0.0094,-0.0045,-0.0039,-0.0034,-0.0017,-0.0091,0,0,0,0,0,0.0106,0.011,0.0092,0.0095,0.0091,0.0066,0.0058,0.0045,0.0026,0.0017,-0.0006,-0.0028,-0.0042,-0.005,-0.0069,-0.007,-0.0104,-0.0064,-0.0059,-0.0054,-0.0045,-0.0083,-0.0081,-0.0109,-0.0109,-0.0109,0,0,0.0114,0.0106,0.0108,0.0099,0.0086,0.0095,0.0061,0.0056,0.0065,0.0014,0.0017,-0.0013,-0.004,-0.0041,-0.0046,-0.0056,-0.0066,-0.0053,-0.0049,-0.0042,-0.0082,-0.0079,-0.0077,-0.0109,-0.0109,-0.0109,0,0,0.0137,0.0127,0.014,0.0136,0.0124,0.0113,0.0115,0.0093,0.0087,0.0081,0.0051,0.0031,0.0008,-0.0006,-0.0016,0.0005,-0.0039,-0.0001,0.0043,0.0006,0.0008,0.0009,-0.0037,-0.004,0.0004,0.0005,0.0005,0,0.0145,0.0164,0.0142,0.0156,0.0162,0.0128,0.015,0.014,0.0116,0.0116,0.0092,0.0055,0.0028,0.0031,0.0038,0.0019,-0.0015,0.0024,0.0013,0.0014,0.0014,-0.0034,-0.0038,0.0008,0.0008,0.0007,0.0007,0,0.0181,0.0197,0.0206,0.0217,0.0219,0.0231,0.022,0.022,0.0203,0.0186,0.0176,0.0131,0.011,0.0098,0.0076,0.0073,0.0042,0.0022,-0.0,0.0021,-0.0031,-0.0036,0.0013,0.0011,0.001,0.001,0,0,0.0201,0.0227,0.0232,0.0254,0.0256,0.0265,0.0285,0.0293,0.0307,0.027,0.028,0.0244,0.0207,0.0193,0.0155,0.0123,0.0091,0.0081,0.0077,0.004,-0.0001,-0.0022,-0.0031,0.0067,0.0066,0.0066,-0.0041,0,0.0238,0.0287,0.0289,0.0339,0.0366,0.0354,0.0378,0.0378,0.0364,0.0361,0.0311,0.0299,0.0248,0.0235,0.0197,0.0117,0.008,0.0121,-0.002,-0.0024,-0.0042,-0.0036,0.0065,-0.0045,-0.0047,-0.0048,-0.0049,0,0.0274,0.0307,0.0366,0.0413,0.0424,0.0447,0.0481,0.0497,0.0483,0.0468,0.0438,0.039,0.0343,0.0293,0.0169,0.0195,0.0109,0.004,0.0034,-0.001,-0.0055,-0.0071,-0.0059,-0.0059,-0.0058,-0.0057,-0.0056,0,0.0308,0.0361,0.0416,0.043,0.0473,0.0501,0.0524,0.0528,0.0553,0.0533,0.0532,0.0461,0.0422,0.0312,0.0165,0.0167,0.0015,-0.0003,-0.0105,-0.0109,-0.0087,-0.0088,-0.0087,-0.0087,-0.0087,-0.0087,-0.0086,0,0.0348,0.0391,0.0437,0.0469,0.0535,0.0546,0.0608,0.0614,0.0628,0.0653,0.0588,0.0572,0.0424,0.0317,0.0185,0.0017,0.0024,-0.0096,-0.0134,-0.0059,-0.0055,-0.0093,-0.0092,-0.0091,-0.009,-0.0089,-0.0088,0,0.0371,0.0402,0.0469,0.053,0.0553,0.0599,0.067,0.0707,0.0711,0.0739,0.0735,0.065,0.0506,0.0344,0.0152,0.0043,-0.0113,-0.0175,-0.0089,-0.012,-0.0218,-0.0212,-0.0291,-0.0292,-0.0293,-0.0295,-0.0295,0,0.0387,0.0423,0.051,0.0552,0.0582,0.0654,0.0703,0.0743,0.078,0.0778,0.0785,0.067,0.0587,0.0304,0.0127,-0.0127,-0.0163,-0.0244,-0.022,-0.0208,-0.0237,-0.0229,-0.0222,-0.0298,-0.0298,-0.0298,-0.0299,0,0.0414,0.0443,0.0497,0.0584,0.0648,0.0725,0.0794,0.0828,0.0865,0.0875,0.0822,0.0684,0.0518,0.0301,0.01,-0.0081,-0.0188,-0.0258,-0.0256,-0.0235,-0.0217,-0.0243,-0.0235,-0.0303,-0.0302,-0.0302,-0.0302,0,0.0427,0.0463,0.0531,0.0606,0.0689,0.0758,0.0804,0.0842,0.0881,0.088,0.0855,0.0686,0.0594,0.0322,0.0136,-0.0043,-0.0085,-0.0136,-0.0141,-0.0138,-0.0063,-0.0017,-0.007,0,0,0,0,0,0.0433,0.047,0.0544,0.0628,0.0712,0.076,0.0844,0.0881,0.092,0.0892,0.088,0.0727,0.0458,0.034,0.0158,0.0096,-0.0129,-0.0126,-0.0192,-0.0328,-0.0323,-0.0262,0,0,0,0,0,0,0.0435,0.0498,0.0537,0.063,0.0687,0.0779,0.0835,0.0864,0.0853,0.0864,0.0724,0.0677,0.0412,0.0559,0.0151,0.0097,0.0029,-0.0244,-0.0248,-0.0331,-0.0327,-0.0322,-0.0258,0,0,0,0,0]}]]